This is the latest recevied weather packets stored in our database for station/object KC4JIR. If no packets are shown the sender has not sent any weather packets the latest 10 day(s).
| Time | Temp. | Humidity | Pressure | Rain* | Wind** | Luminosity | Snow |
|---|---|---|---|---|---|---|---|
| 1788561817 | 32.78° C | 74% | 1010.8 hPa | 0 mm | - | 26 W/m² | - |
| 1788561511 | 34.44° C | 70% | 1010.9 hPa | 0 mm | - | 28 W/m² | - |
| 1788561205 | 34.44° C | 66% | 1010.9 hPa | 0 mm | - | 30 W/m² | - |
| 1788560901 | 33.89° C | 64% | 1011 hPa | 0 mm | - | 32 W/m² | - |
| 1788560595 | 35° C | 65% | 1011.1 hPa | 0 mm | - | 38 W/m² | - |
| 1788560290 | 35° C | 62% | 1011 hPa | 0 mm | - | 139 W/m² | - |
| 1788559990 | 35° C | 61% | 1011.2 hPa | 0 mm | - | 161 W/m² | - |
| 1788559686 | 35° C | 64% | 1011 hPa | 0 mm | - | 40 W/m² | - |
| 1788559385 | 34.44° C | 63% | 1011.2 hPa | 0 mm | - | 36 W/m² | - |
| 1788559080 | 34.44° C | 66% | 1011.4 hPa | 0 mm | - | 216 W/m² | - |
| 1788558775 | 33.89° C | 65% | 1011.2 hPa | 0 mm | - | 247 W/m² | - |
| 1788558471 | 33.89° C | 66% | 1011.3 hPa | 0 mm | - | 248 W/m² | - |
| 1788558167 | 33.33° C | 66% | 1011.3 hPa | 0 mm | - | 280 W/m² | - |
| 1788557864 | 31.11° C | 72% | 1011.4 hPa | 0 mm | - | 293 W/m² | - |
| 1788557561 | 31.11° C | 74% | 1011.2 hPa | 0 mm | - | 41 W/m² | - |
| 1788557257 | 31.67° C | 73% | 1011.1 hPa | 0 mm | - | 28 W/m² | - |
| 1788556956 | 31.67° C | 71% | 1011.2 hPa | 0 mm | - | 28 W/m² | - |
| 1788556651 | 33.33° C | 68% | 1011.2 hPa | 0 mm | - | 26 W/m² | - |
| 1788556346 | 33.33° C | 66% | 1011.2 hPa | 0 mm | - | 25 W/m² | - |
| 1788556040 | 33.89° C | 63% | 1011.1 hPa | 0 mm | - | 47 W/m² | - |
| 1788555730 | 35° C | 62% | 1011.2 hPa | 0 mm | - | 419 W/m² | - |
| 1788555426 | 35° C | 58% | 1011.3 hPa | 0 mm | - | 509 W/m² | - |
| 1788555122 | 33.89° C | 65% | 1011.3 hPa | 0 mm | - | 459 W/m² | - |
| 1788554842 | 32.78° C | 66% | 1011.3 hPa | 0 mm | - | 412 W/m² | - |
| 1788554514 | 34.44° C | 63% | 1011.3 hPa | 0 mm | - | 75 W/m² | - |
* Rain latest hour (hover to see other rain measurements)
** Current wind speed in m/s (hover to see current wind gust speed)